Weather History for Lamar, CO

Change the Weather History Date:

Wednesday, June 19, 2013

  Actual Average Record
Temperature  
Mean Temperature 76 °F 73 °F  
Max Temperature 89 °F 89 °F 108 °F (2012)
Min Temperature 63 °F 57 °F 45 °F (1976)
Degree Days  
Heating Degree Days 0 0  
Month to date heating degree days 16 19  
Since 1 June heating degree days 16 19  
Since 1 July heating degree days 5506 5559  
Cooling Degree Days 11 8  
Month to date cooling degree days 193 116  
Year to date cooling degree days 334 176  
Since 1 June cooling degree days 193 116  
Growing Degree Days 26 (Base 50)    
Moisture  
Dew Point 60 °F    
Average Humidity 62    
Maximum Humidity 87    
Minimum Humidity 36    
Precipitation  
Precipitation 0.01 in 0.07 in 1.83 in (1993)
Month to date precipitation 2.19 1.56  
Year to date precipitation 2.76 6.41  
Sea Level Pressure  
Sea Level Pressure 29.76 in    
Wind  
Wind Speed 19 mph (South)    
Max Wind Speed 32 mph    
Max Gust Speed 43 mph    
Visibility 10 miles    
Events Rain , Thunderstorm    
T = Trace of Precipitation, MM = Missing Value Source: NWS Daily Summary

Daily Weather History Graph

Daily Weather History Graph

Search for Another Location

Airport:

Trip Planner

Search our weather history database for the weather conditions in past years. The results will help you decide how hot, cold, wet, or windy it might be!

Date:

Astronomy

Jun. 19, 2013 Rise Set
Actual Time 5:27 AM MDT 8:16 PM MDT
Civil Twilight 4:56 AM MDT 8:48 PM MDT
Nautical Twilight 4:16 AM MDT 9:27 PM MDT
Astronomical Twilight 3:31 AM MDT 10:12 PM MDT
Moon 4:14 PM MDT (6/19) 2:10 AM MDT (6/19)
Length of Visible Light 15h 51m
Length of Day
14h 48m
Waxing Gibbous, 81% of the Moon is Illuminated
Jun 19
Waxing Gibbous
Jun 23
Full
Jun 29
Last Quarter
Jul 8
New
Jul 15
First Quarter

Hourly Weather History & Observations

Time (MDT) Temp. Heat Index Dew Point Humidity Pressure Visibility Wind Dir Wind Speed Gust Speed Precip Events Conditions
12:06 AM 64.4 °F - 57.2 °F 77% 29.95 in 8.0 mi SE 25.3 mph 32.2 mph 0.01 in Rain Light Rain
12:41 AM 64.4 °F - 59.0 °F 83% 29.96 in 6.0 mi South 29.9 mph 40.3 mph 0.04 in Rain , Thunderstorm Light Rain
12:53 AM 64.9 °F - 59.0 °F 81% 29.81 in 7.0 mi SSE 29.9 mph 56.4 mph 0.06 in Rain , Thunderstorm Rain
1:53 AM 64.9 °F - 57.9 °F 78% 29.83 in 10.0 mi South 12.7 mph - 0.03 in   Clear
2:53 AM 64.0 °F - 57.9 °F 80% 29.82 in 10.0 mi South 8.1 mph - N/A   Mostly Cloudy
3:53 AM 66.0 °F - 57.0 °F 73% 29.79 in 10.0 mi SSE 17.3 mph - N/A   Overcast
4:53 AM 66.0 °F - 59.0 °F 78% 29.80 in 10.0 mi South 16.1 mph - N/A   Overcast
5:53 AM 64.9 °F - 60.1 °F 84% 29.84 in 10.0 mi SSE 10.4 mph - N/A   Overcast
6:53 AM 64.9 °F - 57.9 °F 78% 29.84 in 10.0 mi South 13.8 mph - N/A   Overcast
7:53 AM 66.9 °F - 59.0 °F 76% 29.84 in 10.0 mi South 19.6 mph 24.2 mph N/A   Mostly Cloudy
8:53 AM 71.1 °F - 61.0 °F 70% 29.83 in 10.0 mi South 27.6 mph 33.4 mph N/A   Partly Cloudy
9:11 AM 71.6 °F - 62.6 °F 73% 29.95 in 10.0 mi SSW 24.2 mph 32.2 mph N/A   Mostly Cloudy
9:53 AM 73.0 °F - 62.1 °F 68% 29.80 in 10.0 mi South 21.9 mph 32.2 mph N/A   Overcast
10:30 AM 73.4 °F - 62.6 °F 69% 29.93 in 10.0 mi South 24.2 mph 29.9 mph N/A   Overcast
10:53 AM 75.0 °F - 63.0 °F 66% 29.78 in 10.0 mi South 26.5 mph 31.1 mph N/A   Mostly Cloudy
11:19 AM 77.0 °F - 62.6 °F 61% 29.91 in 10.0 mi South 26.5 mph 32.2 mph N/A   Scattered Clouds
11:53 AM 79.0 °F - 63.0 °F 58% 29.76 in 10.0 mi South 24.2 mph 33.4 mph N/A   Clear
12:53 PM 81.0 °F 82.2 °F 63.0 °F 54% 29.73 in 10.0 mi South 27.6 mph 34.5 mph N/A   Clear
1:53 PM 84.0 °F 84.4 °F 61.0 °F 46% 29.69 in 9.0 mi South 29.9 mph 36.8 mph N/A   Clear
2:53 PM 87.1 °F 86.7 °F 60.1 °F 40% 29.66 in 10.0 mi South 27.6 mph 34.5 mph N/A   Clear
3:53 PM 88.0 °F 86.7 °F 57.0 °F 35% 29.63 in 10.0 mi South 28.8 mph 36.8 mph N/A   Clear
4:53 PM 84.9 °F 83.9 °F 57.0 °F 38% 29.60 in 10.0 mi South 25.3 mph 35.7 mph N/A   Clear
5:53 PM 82.9 °F 82.4 °F 57.0 °F 41% 29.60 in 10.0 mi South 20.7 mph - N/A   Clear
6:53 PM 82.0 °F 82.0 °F 57.9 °F 44% 29.59 in 9.0 mi SSE 18.4 mph - N/A   Partly Cloudy
7:53 PM 82.0 °F 82.4 °F 60.1 °F 47% 29.60 in 9.0 mi South 25.3 mph 31.1 mph N/A   Clear
8:53 PM 75.9 °F - 62.1 °F 62% 29.61 in 10.0 mi SE 20.7 mph 28.8 mph N/A   Scattered Clouds
9:53 PM 73.9 °F - 62.1 °F 66% 29.65 in 10.0 mi SE 13.8 mph - N/A   Overcast
10:53 PM 77.0 °F - 62.1 °F 60% 29.65 in 8.0 mi SSE 10.4 mph - N/A   Partly Cloudy
11:53 PM 75.9 °F - 60.1 °F 58% 29.66 in 9.0 mi SE 4.6 mph - N/A   Mostly Cloudy